Precipitable_Water
0.89 0.89 0.91 0.91 0.91 0.91 0.93 0.94 0.94 0.96 0.95 0.95 0.93 0.95 0.97 0.99 1.03 1.09 1.15 1.18 1.23 1.25 1.26 1.29 1.33 1.35 1.34 1.35 1.35 1.34 1.33 1.29 1.29 1.28 1.27 1.31 1.36 1.39 1.38 1.40 1.39 1.40 1.45 1.49 1.52 1.47 1.45 1.44 1.41 1.41 1.44 1.39 1.37 1.36 1.37 1.40 1.41 1.38 1.33 1.32 1.29 1.27 1.23 1.16 1.08 1.05 1.15 1.24 1.18 1.18 1.24 1.21 1.16 1.19 1.11 1.09 1.15 1.14 1.12 1.09 1.06 1.00 1.00 0.98 0.95
0.86 0.87 0.87 0.89 0.88 0.90 0.91 0.92 0.92 0.93 0.91 0.92 0.93 0.95 0.98 1.02 1.08 1.12 1.14 1.19 1.23 1.25 1.27 1.32 1.35 1.34 1.31 1.28 1.30 1.30 1.28 1.28 1.31 1.31 1.29 1.33 1.36 1.41 1.36 1.39 1.38 1.38 1.41 1.40 1.45 1.41 1.39 1.37 1.38 1.40 1.43 1.40 1.38 1.35 1.35 1.37 1.39 1.36 1.30 1.27 1.26 1.24 1.30 1.21 1.13 1.13 1.10 1.21 1.17 1.22 1.21 1.21 1.12 1.19 1.06 1.05 1.06 1.06 1.01 1.03 1.01 0.94 0.92 0.94 0.91
0.87 0.88 0.88 0.88 0.88 0.89 0.91 0.91 0.91 0.92 0.92 0.94 0.94 0.98 1.02 1.06 1.10 1.11 1.14 1.17 1.21 1.24 1.27 1.33 1.34 1.34 1.30 1.28 1.28 1.30 1.29 1.29 1.32 1.32 1.33 1.33 1.33 1.35 1.35 1.34 1.33 1.32 1.35 1.38 1.39 1.40 1.36 1.34 1.33 1.37 1.42 1.39 1.39 1.38 1.39 1.38 1.40 1.37 1.33 1.38 1.32 1.31 1.31 1.28 1.16 1.08 1.08 1.09 1.15 1.11 1.12 1.14 1.10 1.08 1.08 1.10 1.10 1.05 0.95 0.98 0.93 0.95 0.90 0.83 0.85
0.87 0.88 0.87 0.87 0.88 0.89 0.88 0.89 0.90 0.92 0.92 0.94 0.97 1.01 1.04 1.05 1.10 1.10 1.13 1.15 1.16 1.22 1.28 1.30 1.34 1.35 1.31 1.29 1.29 1.30 1.32 1.32 1.35 1.37 1.35 1.34 1.34 1.33 1.30 1.32 1.34 1.35 1.34 1.37 1.38 1.37 1.35 1.32 1.33 1.37 1.39 1.34 1.35 1.38 1.42 1.44 1.44 1.37 1.28 1.30 1.34 1.29 1.32 1.31 1.28 1.16 1.07 1.01 1.08 1.05 1.08 1.08 1.08 1.05 1.04 1.08 1.08 1.03 0.93 0.91 0.95 0.92 0.84 0.77 0.78
0.87 0.86 0.86 0.85 0.85 0.85 0.85 0.89 0.89 0.90 0.92 0.97 0.98 1.00 1.02 1.03 1.05 1.06 1.09 1.12 1.17 1.22 1.27 1.31 1.31 1.35 1.34 1.33 1.31 1.29 1.31 1.33 1.34 1.38 1.39 1.38 1.37 1.33 1.31 1.30 1.33 1.34 1.34 1.38 1.42 1.43 1.42 1.39 1.37 1.38 1.37 1.31 1.32 1.33 1.35 1.30 1.33 1.35 1.31 1.32 1.32 1.33 1.31 1.26 1.24 1.25 1.10 1.02 1.03 1.07 1.10 1.08 1.07 1.02 1.02 0.98 0.99 0.95 0.91 0.87 0.88 0.83 0.74 0.70 0.74
0.86 0.84 0.83 0.81 0.82 0.83 0.85 0.86 0.87 0.89 0.91 0.93 0.94 0.96 0.97 0.98 0.99 1.02 1.07 1.10 1.15 1.19 1.23 1.30 1.30 1.33 1.37 1.36 1.33 1.34 1.34 1.34 1.33 1.36 1.37 1.38 1.38 1.36 1.34 1.33 1.33 1.34 1.36 1.40 1.42 1.46 1.48 1.42 1.39 1.38 1.38 1.34 1.32 1.32 1.32 1.30 1.33 1.32 1.31 1.32 1.32 1.27 1.24 1.20 1.21 1.24 1.16 1.12 1.04 1.03 1.06 1.03 1.00 0.98 0.99 0.94 0.88 0.86 0.84 0.83 0.80 0.73 0.67 0.74 0.75
0.84 0.83 0.80 0.80 0.81 0.81 0.83 0.84 0.84 0.86 0.88 0.89 0.91 0.91 0.91 0.93 0.94 0.97 1.03 1.06 1.09 1.12 1.18 1.25 1.33 1.35 1.41 1.41 1.39 1.36 1.36 1.39 1.35 1.36 1.38 1.40 1.38 1.36 1.34 1.35 1.37 1.36 1.36 1.38 1.40 1.42 1.42 1.37 1.36 1.39 1.36 1.34 1.33 1.33 1.34 1.31 1.31 1.29 1.31 1.31 1.33 1.27 1.24 1.22 1.23 1.21 1.18 1.18 1.12 1.08 1.03 1.03 0.98 0.89 0.92 0.92 0.88 0.83 0.79 0.76 0.67 0.66 0.70 0.76 0.76
0.83 0.81 0.79 0.79 0.79 0.80 0.82 0.83 0.82 0.84 0.86 0.87 0.87 0.87 0.87 0.88 0.89 0.94 1.00 1.03 1.04 1.08 1.14 1.21 1.32 1.35 1.40 1.39 1.40 1.41 1.36 1.32 1.31 1.35 1.38 1.41 1.41 1.40 1.38 1.39 1.38 1.37 1.39 1.41 1.43 1.41 1.38 1.39 1.41 1.41 1.38 1.36 1.34 1.35 1.35 1.33 1.32 1.28 1.30 1.30 1.30 1.25 1.20 1.21 1.21 1.19 1.16 1.10 1.11 1.03 0.99 0.94 0.92 0.90 0.90 0.86 0.80 0.70 0.72 0.70 0.61 0.60 0.68 0.78 0.80
0.80 0.78 0.77 0.76 0.78 0.80 0.82 0.83 0.83 0.84 0.83 0.83 0.82 0.82 0.82 0.83 0.86 0.90 0.94 0.99 1.04 1.07 1.12 1.17 1.23 1.28 1.34 1.33 1.32 1.36 1.37 1.37 1.38 1.36 1.34 1.34 1.40 1.39 1.39 1.36 1.38 1.39 1.41 1.42 1.43 1.41 1.39 1.39 1.40 1.40 1.41 1.40 1.39 1.37 1.36 1.37 1.31 1.26 1.29 1.27 1.22 1.21 1.22 1.21 1.23 1.20 1.14 1.09 1.08 1.05 0.98 0.91 0.88 0.84 0.80 0.77 0.70 0.65 0.69 0.66 0.59 0.61 0.65 0.68 0.73
0.78 0.77 0.76 0.77 0.79 0.80 0.81 0.81 0.81 0.82 0.81 0.80 0.79 0.79 0.79 0.81 0.83 0.85 0.90 0.95 1.01 1.04 1.06 1.12 1.16 1.20 1.23 1.29 1.30 1.30 1.30 1.35 1.37 1.35 1.36 1.35 1.35 1.36 1.37 1.37 1.37 1.35 1.37 1.35 1.35 1.40 1.41 1.39 1.38 1.37 1.42 1.42 1.40 1.39 1.39 1.39 1.36 1.33 1.29 1.25 1.22 1.20 1.17 1.14 1.14 1.16 1.11 1.07 1.03 0.99 0.91 0.88 0.86 0.86 0.82 0.80 0.76 0.71 0.64 0.61 0.59 0.64 0.68 0.71 0.75
0.77 0.77 0.76 0.78 0.80 0.81 0.80 0.80 0.80 0.79 0.79 0.79 0.79 0.79 0.78 0.79 0.80 0.82 0.86 0.90 0.94 0.99 1.02 1.04 1.09 1.15 1.19 1.23 1.28 1.31 1.30 1.32 1.34 1.35 1.37 1.37 1.37 1.35 1.33 1.33 1.34 1.34 1.33 1.31 1.30 1.38 1.36 1.37 1.37 1.39 1.42 1.40 1.39 1.40 1.40 1.37 1.35 1.31 1.30 1.28 1.27 1.22 1.16 1.13 1.16 1.15 1.08 1.04 0.98 0.94 0.91 0.89 0.89 0.86 0.82 0.81 0.77 0.71 0.66 0.66 0.68 0.69 0.69 0.68 0.66
0.77 0.77 0.78 0.80 0.80 0.80 0.80 0.80 0.79 0.78 0.79 0.78 0.78 0.79 0.79 0.79 0.78 0.80 0.82 0.85 0.88 0.94 0.95 0.97 1.02 1.07 1.12 1.18 1.23 1.29 1.29 1.30 1.30 1.33 1.37 1.36 1.35 1.35 1.36 1.34 1.37 1.34 1.34 1.32 1.28 1.31 1.34 1.34 1.36 1.36 1.37 1.38 1.37 1.36 1.35 1.38 1.35 1.31 1.25 1.26 1.27 1.29 1.28 1.25 1.16 1.11 1.07 1.01 0.96 0.94 0.93 0.90 0.90 0.87 0.84 0.81 0.80 0.77 0.73 0.71 0.71 0.71 0.71 0.71 0.72
0.77 0.78 0.79 0.79 0.79 0.80 0.80 0.79 0.79 0.78 0.78 0.79 0.80 0.80 0.79 0.78 0.78 0.78 0.79 0.82 0.85 0.86 0.89 0.92 0.96 1.02 1.07 1.11 1.22 1.30 1.31 1.34 1.34 1.35 1.35 1.35 1.35 1.37 1.35 1.35 1.34 1.34 1.33 1.35 1.35 1.32 1.30 1.32 1.35 1.37 1.38 1.40 1.37 1.35 1.32 1.32 1.33 1.32 1.28 1.24 1.25 1.26 1.26 1.28 1.26 1.19 1.14 1.06 1.00 0.97 0.95 0.95 0.89 0.90 0.90 0.88 0.90 0.80 0.82 0.77 0.76 0.75 0.76 0.77 0.82
0.78 0.78 0.79 0.79 0.80 0.81 0.80 0.79 0.78 0.78 0.79 0.80 0.81 0.80 0.78 0.77 0.78 0.81 0.82 0.83 0.83 0.84 0.87 0.90 0.94 0.97 1.03 1.10 1.17 1.26 1.32 1.34 1.36 1.36 1.37 1.36 1.37 1.35 1.32 1.29 1.28 1.27 1.27 1.29 1.31 1.32 1.33 1.31 1.29 1.29 1.31 1.32 1.34 1.33 1.31 1.30 1.28 1.27 1.26 1.22 1.23 1.30 1.30 1.26 1.24 1.22 1.21 1.15 1.06 0.99 1.03 1.05 0.96 0.93 0.97 0.95 0.90 0.86 0.86 0.83 0.86 0.85 0.84 0.86 0.94
0.77 0.78 0.78 0.79 0.80 0.81 0.80 0.79 0.78 0.78 0.80 0.81 0.81 0.80 0.79 0.79 0.79 0.81 0.82 0.81 0.82 0.82 0.85 0.88 0.93 0.96 1.03 1.11 1.17 1.21 1.27 1.35 1.36 1.38 1.36 1.33 1.32 1.31 1.30 1.27 1.26 1.25 1.26 1.27 1.28 1.31 1.35 1.34 1.31 1.28 1.29 1.28 1.32 1.30 1.25 1.23 1.22 1.23 1.19 1.17 1.14 1.17 1.20 1.24 1.24 1.21 1.19 1.16 1.10 1.13 1.12 1.13 1.12 1.09 1.07 1.07 1.04 0.99 1.00 0.96 0.96 0.98 1.01 1.06 1.06
0.77 0.78 0.78 0.79 0.79 0.80 0.80 0.79 0.77 0.79 0.79 0.80 0.80 0.79 0.79 0.79 0.79 0.81 0.82 0.82 0.84 0.86 0.87 0.90 0.92 0.97 1.03 1.09 1.15 1.18 1.25 1.32 1.36 1.35 1.35 1.32 1.31 1.30 1.29 1.27 1.25 1.25 1.24 1.25 1.28 1.30 1.31 1.31 1.27 1.27 1.27 1.29 1.30 1.29 1.21 1.21 1.22 1.16 1.15 1.11 1.12 1.14 1.17 1.23 1.25 1.24 1.21 1.17 1.13 1.12 1.15 1.12 1.15 1.10 1.13 1.14 1.13 1.11 1.10 1.10 1.09 1.06 1.01 0.97 0.94
0.76 0.77 0.77 0.78 0.79 0.80 0.81 0.79 0.78 0.78 0.79 0.79 0.78 0.79 0.79 0.80 0.81 0.83 0.79 0.79 0.80 0.82 0.84 0.86 0.91 0.95 1.00 1.05 1.09 1.15 1.21 1.26 1.30 1.30 1.28 1.28 1.27 1.25 1.23 1.23 1.23 1.21 1.21 1.24 1.26 1.28 1.29 1.30 1.27 1.27 1.27 1.30 1.29 1.24 1.23 1.24 1.17 1.12 1.08 1.07 1.08 1.09 1.10 1.17 1.18 1.18 1.16 1.16 1.15 1.14 1.14 1.12 1.14 1.14 1.16 1.16 1.16 1.14 1.09 1.01 0.97 1.00 0.94 0.87 0.88
0.76 0.77 0.77 0.78 0.79 0.80 0.81 0.80 0.78 0.79 0.79 0.78 0.79 0.80 0.82 0.83 0.83 0.84 0.80 0.79 0.78 0.80 0.82 0.84 0.87 0.90 0.94 0.97 1.04 1.09 1.15 1.22 1.25 1.24 1.22 1.22 1.21 1.18 1.16 1.14 1.14 1.15 1.17 1.21 1.23 1.23 1.24 1.24 1.25 1.24 1.23 1.22 1.26 1.28 1.21 1.26 1.14 1.07 1.03 1.05 1.04 1.06 1.07 1.12 1.14 1.13 1.14 1.13 1.11 1.11 1.11 1.12 1.12 1.13 1.13 1.15 1.14 1.13 1.05 0.93 0.97 0.95 0.86 0.85 0.81
0.75 0.75 0.76 0.78 0.80 0.81 0.82 0.82 0.81 0.80 0.79 0.79 0.81 0.80 0.81 0.81 0.83 0.85 0.82 0.81 0.80 0.80 0.80 0.80 0.83 0.86 0.89 0.92 0.97 1.01 1.07 1.13 1.16 1.14 1.13 1.15 1.18 1.17 1.14 1.09 1.08 1.09 1.09 1.09 1.14 1.17 1.18 1.21 1.20 1.20 1.22 1.22 1.23 1.23 1.20 1.17 1.12 1.12 1.07 1.05 1.01 1.01 1.04 1.09 1.06 1.03 1.03 1.02 1.01 1.02 1.03 1.05 1.07 1.08 1.09 1.08 1.07 1.07 1.05 1.01 1.00 0.94 0.88 0.89 0.88
0.76 0.77 0.78 0.79 0.80 0.81 0.82 0.82 0.82 0.82 0.81 0.81 0.82 0.82 0.84 0.84 0.83 0.82 0.81 0.81 0.80 0.80 0.79 0.78 0.79 0.82 0.85 0.88 0.91 0.95 0.98 1.02 1.06 1.06 1.06 1.08 1.09 1.08 1.09 1.05 1.03 1.04 1.06 1.08 1.07 1.11 1.14 1.14 1.18 1.19 1.22 1.19 1.21 1.17 1.16 1.17 1.13 1.11 1.09 1.03 0.99 0.97 1.07 1.07 1.05 1.02 1.00 1.00 0.98 0.96 0.97 1.00 1.02 1.02 1.02 1.01 1.00 0.99 0.98 0.96 0.97 1.00 0.97 0.95 0.93
0.77 0.77 0.78 0.78 0.79 0.80 0.82 0.82 0.82 0.83 0.84 0.83 0.83 0.83 0.84 0.84 0.84 0.82 0.80 0.81 0.80 0.79 0.78 0.77 0.77 0.80 0.83 0.86 0.87 0.91 0.94 0.95 0.99 1.00 1.01 1.01 1.00 0.99 0.98 0.98 1.00 1.01 1.00 1.00 1.05 1.05 1.06 1.08 1.12 1.15 1.20 1.20 1.17 1.13 1.14 1.12 1.10 1.08 1.05 1.06 1.05 1.07 1.07 1.02 1.01 1.00 0.95 0.93 0.91 0.90 0.89 0.88 0.88 0.89 0.90 0.92 0.94 0.95 0.95 0.95 0.97 1.01 1.01 0.94 0.92
0.77 0.77 0.77 0.77 0.78 0.79 0.80 0.82 0.83 0.83 0.84 0.85 0.83 0.82 0.83 0.83 0.83 0.82 0.82 0.81 0.79 0.78 0.77 0.77 0.77 0.78 0.80 0.83 0.85 0.86 0.89 0.92 0.92 0.93 0.94 0.94 0.94 0.94 0.92 0.92 0.96 0.95 0.95 0.96 0.96 0.98 1.02 1.05 1.06 1.08 1.09 1.10 1.11 1.10 1.09 1.08 1.07 1.05 1.05 1.06 1.07 1.06 1.03 1.01 0.99 0.96 0.93 0.90 0.87 0.85 0.84 0.82 0.82 0.81 0.81 0.82 0.84 0.86 0.87 0.88 0.91 0.93 0.95 0.95 0.92
0.76 0.76 0.75 0.75 0.76 0.77 0.78 0.79 0.80 0.82 0.83 0.84 0.83 0.82 0.82 0.81 0.81 0.80 0.79 0.78 0.78 0.77 0.77 0.77 0.76 0.75 0.76 0.78 0.81 0.83 0.85 0.87 0.89 0.90 0.90 0.90 0.90 0.90 0.90 0.89 0.88 0.87 0.84 0.83 0.87 0.90 0.95 0.99 1.01 1.02 1.04 1.06 1.05 1.07 1.06 1.07 1.07 1.05 1.05 1.05 1.04 1.04 1.03 0.99 0.98 0.95 0.92 0.90 0.88 0.85 0.84 0.82 0.80 0.79 0.79 0.78 0.80 0.81 0.81 0.80 0.82 0.84 0.86 0.87 0.87
0.76 0.74 0.74 0.74 0.74 0.74 0.75 0.76 0.78 0.80 0.82 0.83 0.82 0.82 0.81 0.80 0.79 0.78 0.78 0.77 0.75 0.74 0.74 0.75 0.74 0.73 0.73 0.75 0.78 0.79 0.81 0.81 0.82 0.83 0.84 0.85 0.86 0.86 0.86 0.86 0.86 0.84 0.83 0.82 0.83 0.84 0.86 0.89 0.92 0.95 0.96 0.97 0.99 1.02 1.01 1.01 1.01 1.01 1.02 1.02 1.01 1.01 1.00 0.97 0.95 0.93 0.90 0.88 0.85 0.82 0.81 0.81 0.81 0.80 0.80 0.80 0.78 0.78 0.81 0.81 0.79 0.80 0.80 0.80 0.81
0.71 0.70 0.70 0.71 0.72 0.73 0.74 0.74 0.74 0.75 0.76 0.78 0.77 0.78 0.78 0.78 0.75 0.76 0.75 0.73 0.72 0.71 0.71 0.73 0.71 0.71 0.71 0.72 0.73 0.75 0.78 0.80 0.81 0.82 0.83 0.84 0.85 0.85 0.85 0.85 0.84 0.84 0.82 0.82 0.82 0.83 0.83 0.86 0.88 0.89 0.91 0.92 0.93 0.93 0.95 0.97 0.98 0.99 0.98 0.98 0.98 0.96 0.95 0.94 0.92 0.90 0.87 0.84 0.83 0.81 0.79 0.79 0.81 0.82 0.82 0.79 0.77 0.76 0.74 0.75 0.79 0.78 0.75 0.77 0.76
0.65 0.65 0.67 0.68 0.69 0.71 0.71 0.71 0.72 0.72 0.73 0.74 0.74 0.75 0.74 0.74 0.74 0.73 0.72 0.71 0.71 0.70 0.70 0.70 0.70 0.70 0.69 0.70 0.70 0.72 0.74 0.75 0.76 0.78 0.79 0.80 0.81 0.81 0.82 0.83 0.83 0.84 0.83 0.82 0.82 0.83 0.83 0.83 0.83 0.84 0.85 0.86 0.86 0.86 0.85 0.85 0.87 0.89 0.90 0.90 0.90 0.90 0.89 0.88 0.87 0.85 0.83 0.83 0.82 0.78 0.77 0.80 0.84 0.87 0.88 0.85 0.77 0.76 0.76 0.74 0.72 0.70 0.71 0.70 0.67
0.63 0.62 0.62 0.62 0.63 0.65 0.65 0.67 0.68 0.69 0.69 0.70 0.70 0.70 0.70 0.69 0.69 0.68 0.68 0.67 0.67 0.66 0.67 0.67 0.67 0.67 0.66 0.66 0.67 0.68 0.69 0.70 0.72 0.74 0.76 0.76 0.77 0.78 0.79 0.79 0.79 0.78 0.78 0.79 0.79 0.80 0.81 0.82 0.82 0.82 0.83 0.82 0.81 0.81 0.80 0.80 0.79 0.80 0.82 0.83 0.84 0.85 0.85 0.84 0.82 0.81 0.80 0.79 0.79 0.78 0.78 0.80 0.81 0.80 0.78 0.79 0.78 0.78 0.81 0.78 0.74 0.72 0.71 0.68 0.64
0.62 0.60 0.60 0.61 0.60 0.60 0.59 0.59 0.59 0.61 0.63 0.64 0.64 0.65 0.65 0.65 0.64 0.63 0.62 0.62 0.61 0.61 0.62 0.62 0.62 0.62 0.62 0.63 0.63 0.63 0.64 0.65 0.66 0.67 0.68 0.69 0.70 0.72 0.73 0.73 0.74 0.74 0.74 0.75 0.76 0.76 0.76 0.76 0.77 0.77 0.78 0.77 0.77 0.78 0.78 0.79 0.80 0.80 0.80 0.81 0.81 0.81 0.81 0.82 0.83 0.82 0.82 0.82 0.81 0.81 0.81 0.81 0.80 0.81 0.82 0.80 0.79 0.79 0.79 0.77 0.74 0.70 0.69 0.66 0.61
0.64 0.61 0.60 0.59 0.58 0.57 0.55 0.55 0.54 0.53 0.53 0.55 0.57 0.58 0.56 0.56 0.56 0.57 0.59 0.60 0.58 0.55 0.54 0.55 0.56 0.57 0.57 0.56 0.55 0.55 0.56 0.56 0.58 0.62 0.61 0.62 0.61 0.61 0.61 0.62 0.62 0.62 0.62 0.62 0.62 0.62 0.63 0.63 0.63 0.64 0.65 0.65 0.66 0.67 0.69 0.70 0.71 0.74 0.76 0.76 0.77 0.78 0.78 0.78 0.77 0.78 0.79 0.79 0.77 0.77 0.78 0.80 0.79 0.79 0.77 0.74 0.74 0.75 0.75 0.72 0.73 0.71 0.69 0.66 0.61
0.61 0.60 0.58 0.57 0.56 0.55 0.53 0.52 0.51 0.50 0.48 0.47 0.47 0.50 0.53 0.54 0.53 0.52 0.52 0.55 0.56 0.55 0.54 0.51 0.52 0.51 0.48 0.49 0.50 0.47 0.46 0.49 0.52 0.51 0.50 0.50 0.50 0.49 0.50 0.50 0.49 0.49 0.48 0.48 0.47 0.46 0.47 0.48 0.50 0.50 0.52 0.53 0.54 0.56 0.58 0.60 0.61 0.63 0.65 0.67 0.69 0.70 0.70 0.71 0.72 0.73 0.75 0.74 0.74 0.73 0.73 0.74 0.72 0.71 0.70 0.69 0.68 0.69 0.69 0.67 0.65 0.66 0.62 0.59 0.56
0.55 0.56 0.56 0.55 0.54 0.53 0.51 0.50 0.49 0.48 0.47 0.46 0.43 0.42 0.43 0.47 0.50 0.50 0.49 0.49 0.48 0.48 0.48 0.48 0.47 0.47 0.45 0.42 0.44 0.46 0.45 0.45 0.45 0.44 0.43 0.42 0.42 0.41 0.41 0.40 0.41 0.40 0.40 0.38 0.37 0.37 0.36 0.36 0.38 0.40 0.42 0.44 0.45 0.47 0.49 0.51 0.52 0.54 0.56 0.59 0.62 0.63 0.64 0.64 0.65 0.66 0.67 0.68 0.69 0.70 0.70 0.69 0.68 0.68 0.65 0.65 0.64 0.63 0.63 0.64 0.63 0.60 0.60 0.57 0.54
0.51 0.51 0.52 0.52 0.52 0.50 0.49 0.47 0.45 0.44 0.43 0.43 0.42 0.40 0.38 0.36 0.38 0.42 0.42 0.41 0.40 0.39 0.39 0.38 0.39 0.39 0.39 0.38 0.37 0.37 0.39 0.39 0.39 0.38 0.38 0.38 0.37 0.37 0.37 0.37 0.37 0.37 0.37 0.36 0.31 0.31 0.32 0.32 0.33 0.34 0.35 0.36 0.38 0.40 0.41 0.43 0.45 0.47 0.48 0.49 0.51 0.55 0.57 0.58 0.61 0.61 0.60 0.59 0.58 0.60 0.62 0.63 0.63 0.62 0.61 0.59 0.57 0.57 0.57 0.57 0.58 0.56 0.55 0.56 0.55
0.48 0.48 0.48 0.48 0.47 0.47 0.46 0.44 0.42 0.40 0.39 0.38 0.37 0.36 0.34 0.32 0.30 0.30 0.33 0.35 0.35 0.34 0.33 0.33 0.32 0.32 0.32 0.32 0.32 0.33 0.34 0.36 0.36 0.36 0.36 0.36 0.35 0.34 0.34 0.33 0.33 0.33 0.32 0.29 0.28 0.28 0.29 0.29 0.29 0.30 0.31 0.31 0.33 0.35 0.36 0.38 0.39 0.41 0.42 0.44 0.45 0.48 0.50 0.53 0.54 0.55 0.56 0.57 0.57 0.55 0.55 0.56 0.58 0.58 0.57 0.55 0.54 0.52 0.54 0.53 0.54 0.53 0.52 0.51 0.51
0.44 0.42 0.42 0.41 0.40 0.39 0.39 0.38 0.38 0.37 0.37 0.36 0.35 0.34 0.33 0.31 0.30 0.28 0.27 0.28 0.29 0.30 0.32 0.32 0.32 0.31 0.31 0.31 0.31 0.31 0.32 0.33 0.34 0.34 0.34 0.35 0.36 0.36 0.35 0.33 0.33 0.32 0.30 0.28 0.28 0.28 0.29 0.29 0.29 0.30 0.30 0.30 0.30 0.31 0.31 0.32 0.33 0.35 0.37 0.38 0.41 0.44 0.46 0.48 0.48 0.49 0.49 0.52 0.52 0.54 0.55 0.55 0.55 0.54 0.53 0.54 0.56 0.55 0.53 0.51 0.51 0.51 0.50 0.49 0.47
0.42 0.39 0.35 0.34 0.34 0.34 0.35 0.35 0.34 0.33 0.33 0.33 0.34 0.33 0.33 0.32 0.31 0.29 0.27 0.26 0.25 0.25 0.26 0.29 0.31 0.32 0.31 0.31 0.31 0.31 0.30 0.31 0.31 0.31 0.32 0.32 0.32 0.33 0.32 0.29 0.27 0.28 0.28 0.28 0.28 0.28 0.28 0.28 0.28 0.29 0.30 0.30 0.30 0.30 0.30 0.30 0.31 0.31 0.31 0.32 0.34 0.37 0.40 0.42 0.43 0.45 0.45 0.46 0.48 0.48 0.50 0.52 0.53 0.54 0.53 0.52 0.52 0.51 0.49 0.48 0.47 0.48 0.47 0.46 0.46
0.39 0.37 0.35 0.32 0.31 0.30 0.30 0.31 0.31 0.31 0.31 0.31 0.32 0.31 0.31 0.31 0.31 0.30 0.29 0.28 0.27 0.27 0.28 0.29 0.31 0.32 0.32 0.31 0.31 0.30 0.30 0.30 0.30 0.30 0.30 0.30 0.31 0.31 0.27 0.26 0.26 0.27 0.27 0.27 0.27 0.28 0.29 0.29 0.29 0.29 0.29 0.29 0.30 0.30 0.30 0.30 0.30 0.31 0.31 0.30 0.31 0.32 0.34 0.36 0.38 0.40 0.41 0.41 0.43 0.44 0.46 0.46 0.47 0.48 0.49 0.50 0.49 0.49 0.48 0.47 0.47 0.48 0.48 0.46 0.46
0.30 0.29 0.29 0.30 0.30 0.29 0.29 0.29 0.29 0.30 0.30 0.30 0.30 0.29 0.29 0.29 0.28 0.26 0.24 0.23 0.24 0.26 0.28 0.29 0.30 0.30 0.32 0.32 0.31 0.31 0.30 0.30 0.30 0.30 0.30 0.30 0.30 0.29 0.27 0.27 0.26 0.26 0.27 0.27 0.28 0.27 0.26 0.26 0.27 0.28 0.29 0.29 0.29 0.30 0.30 0.31 0.31 0.31 0.32 0.31 0.32 0.32 0.33 0.35 0.36 0.37 0.38 0.38 0.39 0.41 0.41 0.42 0.42 0.43 0.45 0.45 0.46 0.46 0.46 0.46 0.46 0.45 0.45 0.45 0.44
0.31 0.31 0.30 0.30 0.28 0.27 0.26 0.27 0.27 0.28 0.28 0.28 0.28 0.28 0.28 0.27 0.26 0.25 0.23 0.22 0.23 0.23 0.25 0.27 0.27 0.27 0.27 0.29 0.32 0.31 0.30 0.30 0.29 0.28 0.28 0.28 0.28 0.27 0.27 0.27 0.27 0.26 0.26 0.27 0.28 0.28 0.27 0.27 0.27 0.25 0.26 0.27 0.26 0.27 0.27 0.27 0.30 0.31 0.31 0.31 0.31 0.32 0.33 0.34 0.36 0.37 0.37 0.38 0.38 0.38 0.39 0.39 0.39 0.40 0.41 0.41 0.41 0.41 0.42 0.42 0.43 0.42 0.42 0.42 0.42
0.29 0.29 0.29 0.28 0.28 0.27 0.26 0.25 0.25 0.25 0.26 0.26 0.26 0.26 0.26 0.26 0.26 0.26 0.25 0.25 0.24 0.23 0.24 0.25 0.26 0.27 0.28 0.31 0.30 0.31 0.29 0.26 0.25 0.25 0.26 0.27 0.27 0.27 0.26 0.26 0.26 0.26 0.26 0.27 0.27 0.27 0.27 0.27 0.28 0.27 0.27 0.27 0.27 0.27 0.26 0.26 0.27 0.28 0.30 0.30 0.30 0.31 0.31 0.33 0.35 0.36 0.37 0.37 0.38 0.38 0.39 0.39 0.39 0.39 0.39 0.39 0.39 0.39 0.39 0.38 0.37 0.37 0.38 0.38 0.37
0.28 0.27 0.28 0.28 0.28 0.28 0.27 0.27 0.26 0.26 0.25 0.25 0.25 0.25 0.25 0.26 0.26 0.25 0.26 0.25 0.24 0.24 0.24 0.24 0.25 0.27 0.29 0.30 0.29 0.29 0.26 0.25 0.25 0.25 0.26 0.26 0.26 0.27 0.27 0.26 0.26 0.26 0.27 0.27 0.27 0.28 0.28 0.29 0.29 0.28 0.26 0.27 0.28 0.28 0.28 0.27 0.27 0.27 0.28 0.28 0.29 0.30 0.31 0.33 0.34 0.35 0.36 0.37 0.38 0.38 0.38 0.39 0.39 0.39 0.39 0.39 0.39 0.38 0.37 0.35 0.34 0.35 0.35 0.34 0.34
0.27 0.27 0.27 0.28 0.28 0.28 0.27 0.27 0.27 0.26 0.26 0.26 0.26 0.24 0.24 0.25 0.26 0.27 0.26 0.25 0.25 0.24 0.24 0.25 0.25 0.27 0.29 0.29 0.29 0.28 0.26 0.25 0.25 0.25 0.26 0.26 0.26 0.26 0.26 0.27 0.27 0.27 0.28 0.28 0.28 0.28 0.28 0.29 0.29 0.28 0.28 0.28 0.28 0.28 0.28 0.28 0.27 0.27 0.27 0.28 0.30 0.31 0.32 0.33 0.35 0.36 0.37 0.37 0.38 0.39 0.39 0.39 0.39 0.38 0.38 0.39 0.39 0.38 0.38 0.38 0.36 0.34 0.34 0.33 0.32
0.28 0.27 0.26 0.25 0.26 0.26 0.26 0.26 0.27 0.27 0.28 0.28 0.27 0.25 0.24 0.23 0.24 0.25 0.26 0.26 0.25 0.25 0.25 0.26 0.27 0.28 0.29 0.30 0.29 0.28 0.27 0.26 0.26 0.25 0.25 0.27 0.26 0.26 0.25 0.26 0.28 0.29 0.29 0.29 0.29 0.28 0.29 0.28 0.28 0.27 0.28 0.28 0.28 0.26 0.25 0.25 0.27 0.28 0.28 0.28 0.30 0.31 0.32 0.33 0.35 0.36 0.36 0.37 0.38 0.39 0.39 0.39 0.40 0.40 0.39 0.40 0.40 0.39 0.38 0.37 0.36 0.35 0.34 0.33 0.31
0.26 0.24 0.23 0.22 0.22 0.23 0.23 0.24 0.25 0.25 0.25 0.24 0.23 0.24 0.25 0.24 0.23 0.24 0.25 0.26 0.26 0.26 0.26 0.26 0.27 0.28 0.29 0.30 0.30 0.29 0.27 0.27 0.27 0.26 0.26 0.26 0.26 0.26 0.26 0.26 0.27 0.29 0.30 0.30 0.29 0.29 0.29 0.28 0.27 0.27 0.28 0.28 0.27 0.27 0.26 0.26 0.27 0.28 0.29 0.29 0.30 0.31 0.32 0.34 0.36 0.36 0.36 0.37 0.38 0.39 0.40 0.40 0.40 0.40 0.39 0.39 0.39 0.39 0.38 0.37 0.37 0.36 0.34 0.32 0.29
0.25 0.25 0.26 0.26 0.26 0.25 0.25 0.25 0.25 0.25 0.25 0.25 0.25 0.25 0.25 0.24 0.24 0.25 0.26 0.26 0.27 0.27 0.27 0.27 0.28 0.28 0.27 0.28 0.30 0.29 0.27 0.27 0.27 0.27 0.27 0.27 0.27 0.27 0.27 0.28 0.28 0.28 0.29 0.29 0.28 0.28 0.27 0.27 0.26 0.26 0.26 0.26 0.25 0.27 0.29 0.29 0.28 0.27 0.26 0.28 0.29 0.31 0.32 0.34 0.35 0.36 0.36 0.37 0.38 0.39 0.39 0.39 0.39 0.39 0.38 0.37 0.37 0.36 0.36 0.37 0.37 0.36 0.35 0.33 0.31
0.28 0.27 0.27 0.28 0.28 0.27 0.27 0.28 0.28 0.27 0.27 0.28 0.27 0.26 0.26 0.25 0.25 0.26 0.26 0.27 0.28 0.29 0.28 0.29 0.29 0.28 0.28 0.28 0.28 0.28 0.28 0.28 0.28 0.28 0.28 0.29 0.29 0.29 0.29 0.29 0.29 0.29 0.29 0.29 0.29 0.28 0.27 0.26 0.25 0.25 0.24 0.24 0.23 0.25 0.28 0.30 0.30 0.29 0.27 0.26 0.27 0.29 0.32 0.35 0.37 0.38 0.38 0.37 0.38 0.38 0.39 0.39 0.39 0.38 0.37 0.37 0.37 0.37 0.36 0.36 0.35 0.33 0.32 0.30 0.28
0.30 0.29 0.29 0.29 0.29 0.28 0.27 0.28 0.29 0.28 0.27 0.28 0.27 0.27 0.27 0.27 0.27 0.26 0.27 0.27 0.28 0.29 0.29 0.29 0.29 0.30 0.29 0.29 0.29 0.29 0.29 0.28 0.27 0.28 0.29 0.30 0.30 0.30 0.31 0.31 0.31 0.30 0.30 0.29 0.29 0.29 0.28 0.27 0.26 0.25 0.24 0.24 0.23 0.24 0.26 0.27 0.29 0.30 0.30 0.28 0.26 0.27 0.30 0.35 0.38 0.39 0.38 0.39 0.39 0.38 0.38 0.39 0.39 0.39 0.38 0.38 0.38 0.37 0.36 0.35 0.31 0.27 0.26 0.25 0.24
0.30 0.30 0.29 0.26 0.25 0.27 0.29 0.29 0.29 0.27 0.26 0.26 0.26 0.27 0.27 0.29 0.28 0.28 0.28 0.28 0.28 0.28 0.30 0.29 0.30 0.30 0.30 0.30 0.30 0.29 0.29 0.29 0.29 0.29 0.29 0.30 0.31 0.31 0.31 0.32 0.32 0.32 0.31 0.31 0.30 0.29 0.29 0.28 0.27 0.26 0.25 0.25 0.25 0.24 0.22 0.24 0.26 0.30 0.30 0.29 0.27 0.26 0.25 0.26 0.32 0.38 0.39 0.40 0.40 0.40 0.39 0.39 0.39 0.39 0.39 0.38 0.37 0.36 0.35 0.31 0.27 0.22 0.20 0.21 0.21
0.30 0.29 0.28 0.29 0.28 0.27 0.29 0.30 0.30 0.29 0.27 0.27 0.27 0.26 0.25 0.29 0.29 0.29 0.29 0.29 0.28 0.29 0.29 0.29 0.29 0.30 0.30 0.30 0.31 0.30 0.30 0.30 0.31 0.31 0.32 0.31 0.31 0.32 0.32 0.32 0.32 0.32 0.32 0.32 0.32 0.31 0.30 0.29 0.29 0.27 0.26 0.26 0.26 0.25 0.23 0.23 0.23 0.25 0.26 0.27 0.26 0.24 0.22 0.22 0.24 0.32 0.38 0.39 0.40 0.40 0.40 0.40 0.39 0.39 0.38 0.36 0.34 0.33 0.32 0.29 0.24 0.21 0.18 0.20 0.20
0.31 0.31 0.31 0.30 0.29 0.29 0.30 0.31 0.31 0.30 0.29 0.29 0.29 0.28 0.24 0.28 0.29 0.29 0.29 0.29 0.29 0.30 0.29 0.28 0.29 0.29 0.30 0.30 0.30 0.30 0.31 0.31 0.32 0.32 0.32 0.32 0.32 0.32 0.32 0.33 0.33 0.33 0.32 0.32 0.32 0.32 0.31 0.31 0.30 0.29 0.27 0.26 0.26 0.26 0.25 0.25 0.25 0.25 0.25 0.26 0.27 0.26 0.22 0.19 0.17 0.20 0.30 0.37 0.39 0.41 0.40 0.40 0.39 0.38 0.35 0.33 0.30 0.29 0.28 0.25 0.22 0.21 0.19 0.20 0.20
0.31 0.31 0.31 0.31 0.30 0.28 0.29 0.30 0.29 0.31 0.31 0.31 0.30 0.30 0.29 0.29 0.29 0.29 0.29 0.29 0.29 0.30 0.30 0.31 0.30 0.30 0.30 0.30 0.30 0.31 0.31 0.32 0.32 0.32 0.33 0.33 0.33 0.33 0.33 0.33 0.33 0.33 0.33 0.32 0.33 0.33 0.32 0.32 0.31 0.31 0.30 0.29 0.28 0.27 0.26 0.26 0.26 0.26 0.25 0.25 0.25 0.25 0.23 0.20 0.17 0.16 0.17 0.26 0.34 0.38 0.40 0.39 0.38 0.37 0.34 0.31 0.28 0.26 0.24 0.23 0.21 0.21 0.21 0.20 0.20
0.30 0.30 0.30 0.32 0.31 0.31 0.31 0.31 0.30 0.31 0.30 0.30 0.30 0.30 0.30 0.31 0.30 0.30 0.30 0.30 0.29 0.30 0.31 0.31 0.31 0.32 0.32 0.31 0.31 0.31 0.31 0.32 0.32 0.32 0.33 0.34 0.34 0.34 0.33 0.34 0.34 0.34 0.34 0.34 0.34 0.34 0.34 0.33 0.32 0.32 0.31 0.30 0.30 0.29 0.28 0.27 0.27 0.27 0.26 0.24 0.23 0.23 0.22 0.21 0.17 0.15 0.15 0.17 0.25 0.32 0.37 0.38 0.36 0.34 0.33 0.30 0.27 0.23 0.21 0.19 0.18 0.20 0.21 0.20 0.20
Wind_Speed
14 14 15 15 16 16 17 17 17 18 18 19 19 20 21 22 22 23 23 24 24 24 24 22 19 16 14 13 12 13 14 15 16 16 16 16 17 18 17 17 18 18 18 19 19 19 19 19 20 20 20 20 20 20 20 19 19 20 20 20 20 19 18 18 17 16 16 17 17 16 15 14 14 13 12 12 13 12 12 12 12 11 11 11 11
14 14 15 15 15 15 16 16 16 17 17 18 19 19 20 21 21 22 22 22 23 23 22 20 17 14 12 11 11 12 13 14 14 15 15 15 16 16 16 17 17 18 18 19 19 18 19 19 20 20 20 21 21 20 20 20 20 20 20 20 20 19 19 18 18 17 17 17 17 16 15 15 14 13 13 13 13 13 12 13 12 12 12 12 12
14 14 14 14 14 14 14 15 15 16 16 17 18 19 20 20 21 21 21 21 22 21 21 19 16 14 12 11 10 11 11 12 13 13 14 15 15 15 16 16 17 17 17 18 18 19 19 19 19 20 20 20 21 20 20 20 20 20 19 19 19 19 19 18 18 18 18 17 17 17 16 15 15 14 14 14 13 13 12 13 13 12 12 13 13
14 14 14 13 13 13 14 14 15 15 16 17 17 18 19 20 20 21 21 21 21 20 19 18 16 14 12 11 10 10 10 10 11 12 13 13 14 14 15 16 16 17 17 17 18 18 19 19 19 19 19 20 20 20 20 19 19 19 19 19 19 19 19 19 19 19 19 17 17 17 17 16 15 14 14 14 14 13 13 13 13 13 13 13 13
13 13 13 13 12 13 14 14 14 15 16 16 17 18 18 19 20 20 20 20 20 19 19 17 16 14 12 10 10 9 9 10 10 11 11 12 13 14 14 14 15 16 17 17 18 18 18 19 19 19 19 20 20 20 20 20 20 20 19 19 19 19 19 19 19 19 19 18 17 17 17 16 16 15 15 14 14 14 13 14 14 14 13 14 14
13 12 12 12 12 13 13 13 14 14 15 16 16 17 18 19 19 19 19 19 19 19 18 17 15 14 11 10 9 9 9 9 10 11 11 12 12 12 13 13 14 15 16 17 17 17 18 18 18 19 19 20 20 20 20 20 20 20 20 20 19 19 19 19 19 19 19 18 17 17 17 17 16 16 16 15 14 14 14 14 14 14 14 13 13
11 11 11 11 11 12 12 13 14 14 15 15 16 17 18 18 19 19 19 19 19 19 18 16 15 13 11 10 9 9 9 9 10 10 11 11 11 12 12 13 14 14 15 16 16 17 17 17 18 19 20 20 20 20 20 20 21 21 20 20 20 19 19 19 19 20 19 18 18 18 17 17 17 16 16 16 15 15 15 14 14 14 14 14 13
10 10 10 10 11 11 12 13 14 14 15 15 16 17 18 18 19 19 18 18 18 18 17 16 14 12 11 9 9 8 9 9 10 10 10 11 11 11 12 12 13 13 14 15 16 16 17 17 18 18 19 19 20 20 20 20 21 20 20 20 20 20 20 19 19 19 20 20 19 19 17 17 16 16 16 16 15 15 15 14 14 15 15 15 14
10 10 10 10 11 11 12 13 13 14 14 15 15 16 17 18 18 18 18 17 17 17 17 16 13 12 11 10 9 8 8 9 9 10 10 11 11 11 11 12 12 13 13 14 15 16 16 17 17 18 18 18 19 19 20 20 20 20 20 20 20 20 19 19 19 19 19 20 20 19 18 17 17 16 16 17 16 16 15 14 14 15 15 16 16
10 10 10 10 11 11 12 12 13 13 14 14 15 16 17 17 18 18 18 17 16 16 16 16 14 12 11 10 9 8 8 9 9 9 10 10 11 11 11 11 12 12 13 13 13 14 15 16 16 17 17 17 18 18 19 19 20 20 20 20 20 19 19 19 19 20 19 19 20 19 19 18 17 17 17 17 16 15 16 15 15 15 15 15 15
10 10 10 10 11 11 12 12 13 13 14 14 15 15 16 17 17 17 17 16 16 16 16 15 14 13 11 10 9 8 8 8 9 9 9 10 10 11 11 11 11 11 12 12 13 13 13 14 15 15 16 16 17 18 18 19 20 19 19 19 19 19 19 19 19 20 20 19 19 19 19 18 18 17 17 17 16 16 16 17 16 15 15 15 15
10 10 10 10 11 11 12 12 12 13 13 14 14 15 16 16 17 17 17 16 16 15 15 15 14 13 12 11 9 9 8 8 8 8 8 9 10 10 10 10 9 10 10 11 11 12 12 13 13 15 15 16 16 17 17 17 18 18 18 18 19 19 19 19 18 19 20 19 19 19 18 18 18 17 18 18 17 16 17 17 17 16 16 16 15
10 10 10 10 11 11 12 12 12 12 13 13 14 14 15 16 16 16 16 15 15 15 15 14 14 14 12 11 9 8 8 7 7 7 7 7 8 8 8 8 8 8 9 9 11 12 12 12 13 13 15 15 16 16 17 17 17 17 17 17 17 18 18 18 17 18 18 18 18 18 18 18 17 17 17 18 17 16 16 16 17 16 16 16 15
10 10 10 10 11 11 12 12 12 12 12 13 13 13 14 14 15 15 15 15 15 14 14 14 14 14 13 11 9 8 7 6 6 5 5 5 6 7 7 7 7 8 8 9 10 11 11 12 12 13 13 15 15 16 16 17 17 17 17 16 16 16 16 16 16 16 16 16 17 17 17 17 17 17 17 18 17 16 16 16 16 15 15 15 16
10 10 10 10 11 11 11 12 12 12 12 12 12 12 13 13 14 14 14 14 14 14 14 14 14 13 12 10 9 7 6 6 4 3 3 4 4 5 6 6 6 7 7 8 8 9 10 11 12 12 12 13 14 15 16 16 17 18 17 16 15 15 15 15 16 16 16 15 15 15 16 15 15 16 16 16 16 16 16 16 16 16 15 15 16
10 10 10 10 11 11 11 11 11 12 12 12 12 12 12 13 13 13 13 13 13 13 13 14 13 13 12 11 9 8 6 5 3 2 1 1 2 3 4 4 4 5 5 6 7 8 8 10 11 11 11 12 13 13 14 16 17 17 16 15 14 14 14 14 15 15 16 15 15 16 16 15 15 16 16 16 16 16 16 17 17 18 17 17 18
10 10 10 10 10 11 11 11 11 11 11 11 12 12 12 12 12 12 12 12 12 12 13 13 13 13 13 12 11 9 7 5 4 3 4 2 1 1 1 1 1 2 3 4 5 5 6 7 9 10 11 12 12 12 13 15 16 16 15 14 14 13 14 14 14 14 15 15 15 16 16 16 16 16 17 18 18 19 19 19 19 20 19 19 19
10 10 10 10 10 10 11 11 11 11 11 11 11 11 11 11 11 11 10 11 11 11 11 11 12 12 12 12 11 9 7 6 5 5 6 4 2 0 0 1 1 1 0 1 2 3 3 4 6 9 11 11 11 11 12 12 13 14 14 14 13 13 13 14 14 14 15 15 15 15 16 16 17 17 18 19 19 20 20 20 21 21 21 20 20
9 10 10 10 10 10 10 10 10 10 10 11 11 11 11 10 10 9 9 9 9 10 10 10 11 11 11 11 10 9 7 6 5 5 5 5 3 2 1 1 2 2 1 1 1 1 1 2 4 6 9 10 10 10 11 12 12 13 13 13 13 13 14 15 15 15 16 16 16 16 16 17 17 18 18 18 19 19 20 21 21 21 22 22 21
8 9 9 9 9 9 9 9 9 10 10 10 10 10 10 9 9 9 9 9 9 9 9 9 9 10 10 10 10 9 7 6 6 6 5 4 4 3 2 2 1 1 1 1 1 1 0 1 1 3 5 7 8 9 10 11 12 12 12 13 14 14 15 15 15 16 16 16 16 17 17 18 18 18 19 19 19 20 20 21 22 22 23 23 22
7 7 7 7 7 7 8 8 8 9 10 10 9 9 9 8 8 8 8 8 8 8 9 8 8 9 9 9 9 9 8 7 6 6 6 5 5 3 2 2 1 0 1 2 1 2 1 0 1 2 4 5 6 7 8 9 11 11 12 13 14 14 15 15 16 16 17 17 17 17 17 18 18 19 20 20 21 21 21 21 22 23 23 23 23
7 6 6 6 6 6 7 7 8 8 9 9 8 8 8 7 7 8 8 8 8 8 8 8 8 8 9 9 9 9 9 8 7 7 6 7 6 5 4 3 2 1 2 2 2 2 1 1 2 2 3 4 5 6 7 8 9 10 11 12 12 13 14 15 16 16 16 16 16 17 17 18 19 19 20 20 21 21 21 21 21 21 22 22 23
6 5 5 5 5 5 6 6 7 7 8 8 7 7 7 7 7 7 7 7 7 7 8 8 8 8 9 9 9 8 9 9 8 7 7 7 7 6 5 4 4 3 3 3 2 2 2 3 3 3 3 4 5 6 7 7 8 9 10 10 11 12 14 15 15 15 15 15 16 16 17 18 19 20 20 20 21 21 21 20 20 21 21 21 22
5 4 4 4 4 5 5 6 6 6 6 6 6 6 6 6 6 6 6 6 6 7 7 7 7 8 8 8 8 8 7 7 8 8 7 7 7 7 6 6 5 5 4 4 4 3 4 5 6 6 6 6 6 6 7 8 9 9 10 11 11 12 14 14 15 15 15 15 16 17 18 19 19 19 20 20 21 21 21 21 22 22 22 22 22
3 3 3 4 4 5 5 5 5 6 6 5 5 5 5 6 6 6 6 6 6 6 6 7 7 7 8 8 8 8 7 7 7 7 7 7 7 7 7 7 7 7 6 6 6 5 5 5 6 7 8 9 9 9 9 10 10 11 12 12 13 14 14 15 15 16 16 17 18 18 19 19 20 20 21 21 22 22 23 23 24 24 24 24 24
2 2 3 3 3 3 4 4 5 5 5 5 5 5 6 6 6 6 6 6 6 6 6 7 7 7 7 8 7 8 8 7 7 7 7 7 7 8 8 7 8 7 7 7 7 7 7 7 8 8 9 10 11 12 12 12 13 13 14 15 16 17 17 18 18 19 19 20 20 20 21 21 22 23 23 24 25 25 25 26 26 26 26 26 25
3 3 2 2 2 3 3 4 4 4 5 5 5 5 5 6 6 6 6 6 6 6 7 7 7 7 7 7 7 7 7 7 7 7 7 7 7 7 7 8 8 8 8 8 9 9 9 9 10 10 11 11 12 13 14 14 15 16 17 18 18 19 20 20 21 21 21 22 23 24 24 25 25 25 26 26 27 27 27 27 27 26 26 26 24
4 3 3 2 2 3 3 4 4 4 4 4 5 5 6 6 6 6 6 7 7 7 7 7 7 7 7 7 7 7 8 8 8 8 8 8 8 8 8 9 9 9 9 9 10 10 10 11 11 12 12 13 14 14 15 16 16 17 18 18 19 20 21 22 22 23 24 25 25 25 26 26 26 26 26 26 27 27 27 27 27 26 25 25 24
5 4 3 2 2 3 3 4 4 4 4 4 4 5 6 6 6 6 6 7 7 6 7 7 7 7 7 7 7 7 8 8 8 9 9 9 9 9 9 10 10 10 10 10 10 11 11 12 12 13 13 14 14 15 16 16 17 18 18 19 19 20 21 21 22 23 24 25 25 25 25 26 26 26 26 26 26 26 26 25 26 26 25 24 23
4 4 4 3 3 3 3 3 4 4 4 4 4 5 6 6 7 6 6 6 7 7 7 6 6 7 7 7 7 7 8 8 9 9 9 10 10 10 10 10 10 11 11 11 11 11 12 12 13 14 14 14 15 16 16 17 18 18 19 19 20 20 20 21 21 22 23 24 25 25 25 25 25 26 26 25 26 25 24 23 23 24 24 24 23
2 3 3 3 2 2 2 2 3 3 4 4 4 4 5 6 6 6 6 6 7 7 7 7 7 7 7 7 7 7 8 8 9 10 10 10 11 11 11 11 12 12 12 12 12 12 13 13 14 14 15 16 16 17 17 18 18 19 19 20 20 20 21 21 22 22 23 24 25 25 25 25 25 25 25 25 25 24 24 23 23 23 24 24 24
2 2 2 2 2 2 3 3 3 3 4 4 4 4 4 5 5 6 6 6 7 7 7 7 7 7 7 7 7 7 8 8 8 9 10 10 11 11 11 11 12 12 13 13 13 13 14 14 15 15 16 17 17 18 18 19 19 20 20 21 21 21 22 22 22 22 23 23 24 25 25 26 26 25 25 25 25 24 24 24 24 24 24 25 26
3 3 3 3 2 3 3 4 4 4 4 4 4 4 4 4 4 5 5 6 6 7 7 7 7 7 7 7 6 6 7 7 8 9 9 10 10 11 12 12 12 13 13 13 14 14 15 15 16 16 17 18 18 19 20 20 21 21 21 22 22 23 23 23 23 23 23 24 24 24 25 26 25 25 25 25 25 25 25 25 25 25 24 24 24
3 3 4 4 4 4 3 4 4 4 4 4 4 4 4 4 4 4 4 5 5 6 7 7 8 8 8 8 8 7 7 8 9 9 10 10 10 11 12 12 13 13 13 14 14 15 15 16 16 17 18 18 19 19 20 20 21 22 22 23 24 24 24 24 24 24 24 24 24 25 25 25 25 25 26 26 26 26 25 24 24 24 23 23 23
4 4 3 3 4 4 3 3 2 3 3 3 2 2 2 2 3 4 4 5 5 5 6 7 7 8 8 9 9 9 9 9 10 10 10 10 10 11 11 12 13 14 14 14 14 15 15 16 17 17 18 18 19 19 19 20 21 22 22 23 23 24 24 24 25 25 25 25 25 25 25 25 25 25 25 25 24 24 23 23 23 23 23 23 23
4 4 3 3 2 2 2 2 2 2 2 2 2 2 2 3 3 4 4 5 5 5 5 6 7 7 8 9 9 10 10 10 11 11 11 11 11 11 12 12 13 13 14 14 15 15 16 16 17 17 18 18 19 19 20 20 21 21 21 22 22 22 22 23 23 24 24 24 25 25 25 25 25 25 24 24 23 23 23 23 23 24 24 24 23
2 2 3 2 2 1 0 0 1 1 2 2 3 3 3 4 4 5 5 5 5 5 5 6 7 7 7 8 8 9 10 10 10 11 11 12 12 12 12 12 13 14 14 15 15 16 16 17 17 18 18 19 20 20 20 20 21 21 21 21 21 20 20 21 21 21 22 22 22 23 23 24 24 24 24 23 23 23 23 23 23 23 23 22 22
3 2 2 2 1 1 2 2 3 3 3 4 4 4 4 4 5 5 6 6 6 5 5 5 7 7 7 7 7 8 9 10 11 11 11 12 12 12 12 13 13 14 14 15 15 16 16 17 18 18 19 20 20 21 21 21 20 20 20 20 20 20 19 19 19 20 20 20 20 20 21 21 22 21 22 22 22 22 23 23 23 22 22 21 21
4 3 3 3 3 3 4 4 4 4 4 4 4 4 4 4 4 5 5 6 6 6 5 5 6 7 8 7 7 8 9 10 11 11 12 12 12 13 13 13 14 14 14 15 16 16 17 17 18 19 20 20 21 22 22 22 21 21 20 20 19 19 19 19 19 19 18 18 19 19 19 19 19 19 20 20 21 21 22 22 22 22 21 21 20
5 5 5 5 5 4 4 4 4 4 4 4 3 4 4 3 3 4 4 5 6 7 7 7 7 7 8 8 8 9 10 10 11 11 11 12 13 13 14 14 14 14 15 15 16 17 17 18 19 20 20 21 21 22 22 22 22 22 21 20 19 19 18 18 18 18 18 18 18 17 17 17 17 18 18 19 19 20 20 20 20 21 21 21 20
6 5 5 5 4 4 4 3 3 3 3 3 4 4 4 4 4 4 4 5 6 6 7 7 7 8 8 8 9 10 10 11 11 11 11 11 12 13 14 14 14 14 15 16 17 17 17 18 19 20 20 21 21 22 23 23 23 23 22 21 19 18 18 17 17 17 17 17 17 17 16 16 16 16 16 16 17 17 17 18 18 18 19 19 20
6 5 5 4 3 3 3 3 3 3 3 3 3 3 3 3 3 3 3 4 5 6 6 7 7 8 9 9 9 10 11 11 11 11 11 11 12 13 14 15 15 14 15 16 17 17 17 18 19 20 20 21 22 22 23 23 23 23 22 21 20 19 18 17 17 17 17 17 17 16 16 15 15 14 14 14 15 15 15 15 15 15 16 16 17
5 5 4 4 3 3 3 3 3 2 2 2 3 3 3 3 4 4 4 4 4 5 6 6 7 8 9 9 9 10 11 11 11 12 12 12 13 13 14 15 15 15 15 16 17 17 17 18 19 20 20 21 22 22 23 23 23 23 22 22 20 19 18 17 17 17 17 16 16 16 15 15 14 13 13 13 13 13 14 14 14 14 14 14 14
5 5 4 4 3 3 2 2 2 1 1 2 2 3 4 4 4 4 4 4 4 5 5 6 6 8 8 8 9 10 11 11 12 12 12 13 13 14 15 15 15 15 16 16 17 18 18 18 19 20 20 21 22 22 22 23 23 23 23 22 21 20 19 18 17 17 17 16 16 16 15 14 13 13 12 12 12 12 12 12 13 14 14 14 13
4 4 3 3 2 1 0 0 0 1 1 2 3 4 4 5 5 4 4 5 5 5 5 6 7 7 8 8 9 10 11 12 12 12 12 13 14 14 15 15 16 16 16 17 17 18 18 19 19 19 20 21 21 22 22 23 23 23 23 23 22 20 19 18 17 17 16 16 15 15 15 14 13 12 11 11 11 11 11 12 12 12 13 13 12
4 3 2 2 2 2 2 2 2 2 2 2 3 3 4 4 5 5 5 5 5 5 6 7 7 8 8 9 10 11 11 12 12 12 12 13 14 15 15 16 16 16 16 17 17 18 18 18 19 19 20 21 21 21 22 23 23 22 23 23 22 21 20 19 18 17 16 16 15 15 14 13 12 12 11 10 10 11 11 11 11 11 11 11 12
3 3 2 1 2 2 3 3 2 2 2 2 3 3 4 5 6 6 6 6 5 5 6 7 8 8 9 10 11 11 12 12 12 12 12 13 14 15 16 16 16 16 16 17 17 18 18 18 18 19 20 21 21 22 22 22 22 22 22 23 22 22 21 20 19 18 16 16 15 15 14 13 12 12 11 11 10 11 11 11 11 10 10 10 11
2 2 2 2 2 2 3 3 3 3 3 3 3 4 4 5 6 6 6 6 7 7 7 8 9 9 10 11 12 12 13 13 13 13 13 14 15 15 16 16 16 16 17 17 18 18 18 18 19 19 20 20 21 22 22 22 22 22 22 22 23 22 22 21 20 18 17 16 15 15 14 13 12 12 12 11 11 11 11 11 11 10 10 10 11
2 2 2 3 3 4 4 4 4 4 3 2 3 4 5 5 6 6 6 7 8 8 9 10 10 11 11 12 13 14 13 13 13 14 15 15 15 15 16 16 16 17 17 17 18 18 18 19 19 19 20 20 21 21 21 21 22 22 23 23 23 23 22 21 20 19 18 16 16 15 14 13 12 12 12 12 12 11 11 11 11 10 10 10 11
3 3 3 3 4 4 4 4 4 3 3 3 4 5 5 5 6 7 7 8 8 9 10 11 11 11 12 13 14 14 13 14 14 15 16 16 16 16 16 17 17 17 17 18 18 18 19 19 18 19 19 20 21 21 21 21 22 22 23 23 23 23 22 22 21 20 18 17 16 15 15 14 13 13 12 12 12 13 12 12 12 11 11 11 11
4 4 4 4 4 4 4 4 3 3 4 4 5 5 6 6 7 7 8 9 9 10 11 11 12 12 13 13 14 14 15 15 15 16 16 17 17 16 17 17 18 18 18 18 18 19 19 19 19 19 19 20 20 21 21 21 22 22 23 23 23 23 23 22 21 20 19 18 17 16 15 14 14 13 13 13 13 13 13 13 13 13 13 12 12
Wind_Direction
295 295 294 295 296 298 300 302 304 307 309 312 314 316 317 319 320 319 318 321 322 322 323 323 319 311 300 288 274 263 256 251 247 244 244 244 241 242 241 235 232 232 229 228 227 226 224 222 223 224 223 223 225 227 228 227 224 222 222 221 221 220 218 217 217 217 218 216 213 215 220 221 222 223 222 221 219 218 220 221 222 224 226 227 227
296 297 296 296 297 299 301 304 307 309 313 316 318 320 321 322 323 321 322 324 325 326 327 326 321 313 305 292 279 269 260 253 247 244 245 244 242 241 237 233 232 231 227 226 226 225 224 224 225 225 225 226 227 227 228 226 224 223 223 222 221 219 217 217 217 216 216 214 213 218 221 221 223 223 219 219 220 222 224 224 225 227 229 230 230
296 296 297 298 300 302 305 307 310 313 317 320 322 323 324 324 325 325 325 326 328 329 330 328 322 314 305 295 285 274 262 252 247 246 245 243 241 238 235 233 231 228 226 225 225 226 226 227 228 228 228 228 229 229 228 226 226 224 222 221 220 218 219 219 218 216 214 213 214 218 219 220 223 221 218 219 222 227 230 229 227 229 232 233 234
295 295 297 300 302 305 307 309 312 316 319 321 323 324 325 325 327 328 328 328 330 332 332 330 325 316 306 297 290 277 262 252 248 248 246 241 237 236 235 233 230 228 228 228 228 228 229 229 230 229 230 230 230 229 227 226 226 224 222 221 220 219 220 221 221 218 214 212 215 217 216 217 220 220 218 220 226 231 234 232 230 232 234 234 236
293 294 297 300 302 306 308 310 314 318 320 322 324 325 326 327 329 330 330 331 332 333 334 331 327 321 310 299 289 277 264 256 253 251 245 239 237 237 236 234 230 229 230 230 230 230 230 231 231 230 231 230 230 229 226 225 225 223 222 221 219 220 221 220 220 217 214 212 213 214 214 215 219 222 221 222 227 231 233 234 233 233 234 235 239
292 294 296 298 302 307 309 311 315 319 321 323 324 325 327 328 330 331 333 334 334 334 335 333 328 323 315 302 290 278 267 261 259 254 246 240 239 238 237 235 233 232 232 232 232 232 232 232 231 231 231 230 230 230 227 225 223 222 221 220 220 220 220 218 217 214 215 214 212 213 214 215 219 222 223 225 229 230 230 232 234 235 235 238 242
293 295 297 299 303 307 310 312 315 317 319 321 323 326 328 328 330 332 332 335 336 336 336 335 331 325 318 307 295 282 270 265 262 254 246 242 241 241 240 238 236 235 234 234 234 234 234 234 232 231 231 231 230 229 227 225 223 223 222 220 220 219 217 217 215 214 215 214 213 214 214 215 219 223 226 229 231 230 228 228 231 235 237 240 244
294 295 297 300 304 307 309 312 315 317 319 322 325 328 330 331 332 332 332 335 338 339 339 338 335 329 322 314 303 288 274 268 263 254 247 245 244 244 243 241 239 238 237 237 237 235 235 235 233 231 231 230 229 228 227 225 224 224 222 220 219 218 217 216 215 214 213 211 213 216 216 217 222 225 228 229 229 229 230 229 230 233 237 241 246
292 293 297 300 303 305 308 312 317 320 322 326 329 331 331 332 333 334 335 336 339 342 343 343 341 334 326 319 308 295 283 273 264 255 250 247 246 247 247 244 242 241 240 239 238 236 234 234 232 231 229 228 227 227 226 225 224 221 220 218 216 215 215 215 214 212 210 210 213 218 221 222 223 226 229 229 228 228 229 230 232 234 237 240 245
289 291 294 299 302 304 308 313 317 320 324 327 330 330 331 332 333 336 337 337 339 342 344 345 345 340 331 323 312 299 288 278 269 259 253 251 249 249 250 247 244 242 241 240 237 234 234 234 232 230 228 227 227 226 225 224 222 219 218 217 214 214 214 213 213 213 212 213 217 220 224 226 225 226 228 228 228 228 229 233 236 237 238 240 244
288 289 292 297 301 306 310 313 316 320 323 327 329 330 330 331 333 336 338 339 340 341 342 344 345 343 337 329 318 304 291 284 276 265 256 253 252 251 252 250 247 245 243 241 237 234 235 235 233 230 230 229 228 227 227 224 220 218 218 215 213 215 215 213 215 217 216 218 220 223 225 226 226 227 226 226 229 232 234 237 237 237 239 241 246
286 286 291 296 300 305 309 312 316 319 322 326 329 331 332 333 336 338 340 341 340 341 341 341 342 341 337 332 325 313 299 291 283 269 258 254 254 253 253 252 250 246 244 240 237 235 235 236 234 232 231 230 229 227 225 221 216 215 215 213 214 215 214 213 217 219 219 219 220 222 223 225 228 231 229 229 234 239 240 239 237 238 240 242 246
285 285 290 295 300 303 306 311 315 319 322 326 330 333 335 337 339 341 343 344 344 344 345 344 343 342 339 335 330 321 308 297 286 273 262 257 256 254 252 251 250 249 248 245 238 235 236 236 234 233 231 229 227 224 219 214 211 210 210 212 214 214 213 215 218 218 219 221 221 223 227 229 231 234 234 234 238 242 241 240 240 241 243 245 248
284 285 288 293 297 301 304 309 314 317 321 326 330 335 337 338 340 342 345 348 349 350 351 351 350 349 346 342 336 328 318 307 292 276 266 261 255 252 251 253 255 256 256 253 245 238 237 236 233 233 231 226 222 218 214 212 210 208 208 210 212 214 216 217 215 215 220 222 222 225 229 232 234 236 237 237 239 240 240 240 242 243 245 248 251
283 285 287 291 295 299 303 307 312 316 321 325 330 334 336 337 339 342 346 349 351 353 355 356 357 356 354 354 350 341 332 325 309 281 265 263 255 252 256 257 259 259 258 256 249 241 238 236 232 230 227 220 215 214 213 211 207 205 207 211 215 218 219 217 215 217 223 226 226 226 228 233 235 235 235 237 238 240 242 243 245 246 249 251 252
282 284 287 290 293 296 301 306 311 315 319 323 328 332 334 335 338 341 345 350 353 356 358 0 2 3 4 7 8 1 353 346 337 335 333 297 267 261 261 257 258 260 258 255 248 242 240 236 230 226 221 216 215 216 213 208 205 205 209 214 218 218 218 218 219 222 226 229 231 229 230 236 237 232 232 237 240 242 246 248 249 250 252 253 254
284 285 287 290 292 295 299 304 309 313 317 321 325 328 330 333 336 340 345 350 354 357 360 3 7 9 10 14 20 24 27 29 30 35 34 23 313 259 257 256 269 270 258 251 244 237 236 233 225 220 217 215 215 212 207 206 207 210 212 213 213 215 218 221 223 224 227 230 232 232 234 239 240 236 238 244 247 248 251 252 252 252 252 253 255
286 285 287 288 291 295 299 303 308 310 314 318 322 325 328 331 334 337 344 350 354 356 358 2 7 10 11 15 21 31 40 47 51 45 34 28 24 12 30 54 52 57 151 223 223 218 223 229 225 221 218 215 213 210 208 208 209 208 208 210 213 218 223 226 228 229 231 233 236 239 242 244 244 243 245 249 252 253 253 252 252 251 251 252 255
287 284 284 286 290 294 298 303 307 309 312 315 318 322 326 329 331 335 340 345 348 352 355 359 4 8 11 14 20 26 29 27 24 21 19 23 33 31 19 51 73 68 59 86 149 177 213 229 232 224 216 211 210 211 212 212 210 210 212 216 219 224 228 231 232 233 235 238 241 245 247 248 248 248 250 253 255 256 255 254 254 254 253 254 255
287 283 282 284 289 293 298 303 307 309 311 313 317 320 323 327 332 336 339 340 342 346 351 356 2 7 12 17 22 27 26 15 6 7 13 22 28 20 11 27 51 47 37 55 89 70 49 209 216 207 198 198 204 209 211 214 215 219 225 226 227 231 234 235 236 237 239 242 245 248 250 251 252 252 253 256 257 258 258 258 257 256 256 256 257
287 285 285 287 291 296 302 307 311 313 313 312 315 320 323 328 334 340 342 344 347 351 353 357 3 9 15 21 26 29 27 20 14 18 26 29 25 19 19 24 24 19 24 13 352 356 11 99 172 167 174 184 197 205 209 213 216 221 227 230 233 236 237 238 240 242 244 247 250 253 256 256 256 256 256 257 258 259 260 262 262 261 259 259 258
285 288 291 295 299 303 307 310 312 314 314 314 316 320 323 328 335 341 344 348 355 359 360 1 6 12 16 21 26 29 27 24 21 23 27 28 26 23 21 18 11 2 5 353 326 322 329 244 210 203 202 208 216 218 219 222 224 226 231 233 236 239 241 242 245 248 250 253 255 257 259 260 260 260 259 259 259 260 262 263 264 263 262 262 261
278 285 292 300 305 307 310 312 311 312 315 317 318 320 323 328 335 340 343 347 353 357 359 1 6 12 15 17 21 23 22 21 19 17 16 17 18 17 14 8 358 348 348 344 316 293 279 257 250 255 254 250 247 243 241 240 237 235 237 240 243 246 246 247 250 253 255 257 260 262 263 264 263 263 262 261 260 260 261 262 264 265 264 264 263
268 277 288 296 301 305 310 314 315 315 317 320 322 325 327 332 337 341 345 350 354 355 356 359 4 10 13 13 15 16 17 18 18 16 15 14 14 13 11 7 0 354 353 349 332 305 284 270 264 263 262 261 261 259 256 254 250 249 252 254 255 254 253 253 256 258 260 262 266 267 267 267 266 265 264 262 261 261 262 263 265 267 266 264 264
263 272 284 291 296 302 309 314 318 319 319 321 324 324 324 327 333 337 341 347 349 350 353 356 360 5 7 6 6 8 10 12 12 11 11 11 11 10 8 6 4 2 359 356 348 337 319 298 285 279 275 272 269 268 266 263 262 262 263 263 261 259 258 260 262 264 266 268 270 270 270 269 268 267 266 265 265 265 265 266 267 267 266 265 265
260 272 287 295 301 310 319 322 325 328 330 332 334 330 328 330 334 337 338 340 340 342 347 351 353 357 359 359 360 2 6 6 4 1 0 359 358 357 356 354 352 350 346 341 338 336 330 319 308 298 292 286 281 278 275 273 272 271 270 268 267 265 264 265 266 267 268 269 270 270 271 270 269 268 268 267 267 267 267 268 268 267 266 264 263
247 256 270 286 307 326 336 339 341 343 345 349 353 351 348 348 349 347 345 344 345 347 347 347 347 347 348 350 351 354 357 358 357 353 351 349 347 345 343 341 338 336 333 328 324 321 317 314 310 305 300 296 292 288 285 283 281 279 277 275 273 271 270 269 269 269 269 269 270 270 270 270 270 269 268 267 267 267 267 267 266 265 263 262 260
249 254 260 275 309 339 354 1 1 357 355 358 3 2 359 359 359 358 354 351 353 355 354 352 349 346 344 344 346 349 351 350 348 344 341 341 340 338 337 336 333 330 327 321 316 312 309 307 305 302 299 297 295 292 290 288 286 284 283 281 279 276 274 272 271 270 271 272 272 271 270 269 269 268 267 267 267 267 266 264 261 260 261 261 260
246 248 255 275 311 335 353 3 4 2 1 4 7 7 5 4 4 2 358 357 360 2 2 360 355 352 350 347 345 347 347 343 340 339 339 339 337 335 333 331 327 324 322 318 314 311 310 309 307 304 301 299 297 295 293 292 290 288 286 284 283 281 279 276 274 273 273 273 273 271 269 269 268 268 267 267 266 265 265 263 259 256 257 259 259
237 239 249 271 298 321 341 353 1 8 10 10 11 13 13 11 9 5 1 0 3 3 1 359 354 353 353 350 347 345 342 337 336 339 341 341 339 336 335 332 329 325 322 319 318 316 314 311 309 306 303 301 299 297 295 294 293 291 289 287 285 284 282 279 277 275 274 273 273 273 271 269 269 268 268 267 265 264 263 263 261 258 256 257 257
235 234 240 253 273 302 328 337 344 352 357 359 2 6 9 9 7 5 3 2 2 360 357 354 351 349 348 346 345 344 341 339 340 341 340 339 339 337 335 333 332 329 325 323 322 321 318 315 312 308 305 303 301 299 297 296 295 294 292 290 288 286 285 283 280 278 276 274 273 272 271 269 269 268 268 267 265 264 264 264 264 262 259 258 258
257 264 254 248 257 276 294 310 323 328 330 336 341 346 351 354 355 355 357 359 0 359 357 354 352 349 347 345 343 343 344 344 344 343 343 342 342 341 339 337 335 332 329 327 326 325 322 320 317 314 310 307 304 302 300 298 297 295 293 292 290 289 287 286 283 280 278 276 274 272 271 271 270 269 268 267 266 265 264 264 265 264 262 261 260
261 279 284 281 278 282 287 294 301 306 310 315 321 330 339 345 347 349 350 355 360 2 4 5 6 6 4 1 357 355 354 353 352 349 347 346 346 347 347 345 343 341 338 335 334 332 329 326 324 321 317 314 310 306 304 302 300 298 295 294 293 291 289 288 286 283 281 278 276 274 273 272 271 270 268 268 267 266 265 264 264 263 262 261 261
262 277 286 288 289 290 291 295 298 300 301 302 306 317 330 342 354 1 1 3 7 8 10 12 15 17 18 15 12 9 7 4 1 357 354 352 351 350 350 349 348 348 347 344 341 339 337 335 333 329 326 322 318 313 310 306 304 301 299 297 294 292 290 289 287 286 284 281 278 277 275 273 272 271 269 268 268 268 266 265 263 262 262 261 260
261 269 278 285 286 285 286 292 303 316 321 320 319 325 336 351 8 14 13 13 16 17 17 16 14 15 16 16 14 12 9 7 5 3 1 1 359 356 353 351 351 350 349 348 346 344 342 341 338 335 332 329 325 321 317 313 310 307 304 301 298 294 292 290 288 287 286 283 280 279 277 274 274 273 271 269 268 267 265 263 261 261 261 261 258
260 256 252 255 264 274 280 284 299 324 349 9 25 38 42 39 33 22 14 12 14 17 18 15 12 10 11 12 12 11 8 7 7 7 5 4 1 358 355 355 354 353 351 350 349 348 346 344 342 339 337 334 331 328 324 320 316 312 309 306 302 298 295 292 290 289 288 286 283 281 278 277 276 274 271 268 267 265 263 261 260 259 260 259 257
238 234 229 228 233 243 262 43 44 48 51 53 59 63 60 51 43 35 29 23 19 16 14 12 10 7 4 3 6 8 7 7 8 8 6 3 1 359 357 357 357 355 354 353 352 352 351 349 347 345 343 341 338 335 331 327 322 318 315 311 308 304 300 297 295 293 291 289 287 284 280 278 277 274 269 266 266 265 264 263 261 260 260 258 256
190 187 180 172 155 117 96 88 84 83 80 73 68 62 53 44 40 38 35 30 25 20 16 14 13 11 8 4 6 8 8 8 7 6 3 1 1 360 358 358 357 357 356 355 354 354 354 352 351 349 348 346 344 342 339 335 331 326 321 317 313 310 307 303 300 298 295 292 291 289 285 282 279 275 269 266 265 265 264 263 261 260 259 258 256
159 146 136 128 117 105 96 91 87 82 77 70 62 52 44 39 36 32 30 28 27 25 22 19 17 18 18 17 14 11 9 7 6 5 2 0 359 358 357 356 356 356 356 355 354 354 353 353 352 351 350 348 347 346 345 343 339 334 329 324 319 316 312 309 306 303 299 296 294 293 290 287 282 278 273 270 267 266 264 262 261 259 257 257 256
141 131 124 119 115 109 101 93 84 75 68 63 55 47 45 45 43 38 32 30 30 29 27 24 20 17 15 13 8 5 3 1 1 1 -0 358 357 356 355 354 354 354 354 353 352 352 352 351 351 351 350 349 349 348 347 346 343 340 336 331 326 322 317 313 311 308 304 301 298 296 295 292 287 282 278 275 271 268 265 263 262 259 258 257 257
131 127 124 121 119 114 106 97 91 83 74 65 56 51 52 50 45 38 30 25 25 23 21 20 17 12 7 5 3 1 359 357 356 356 355 354 353 353 353 351 350 350 351 351 350 349 350 350 350 350 350 350 349 349 348 347 345 344 341 337 333 329 324 320 316 313 310 307 304 300 298 296 293 289 285 281 276 272 268 266 263 260 259 259 259
134 132 129 125 124 124 117 104 96 93 86 74 58 46 38 31 28 23 14 7 9 10 9 9 7 3 0 359 358 358 357 356 355 355 353 350 349 350 351 349 347 347 348 348 347 347 348 348 348 349 349 349 349 349 349 349 347 346 345 342 338 334 330 326 322 319 316 313 310 306 302 299 297 294 290 286 281 276 272 269 265 262 261 261 260
144 142 136 126 118 117 118 112 102 94 86 67 40 23 14 7 3 2 356 350 351 356 357 356 354 353 352 353 353 354 354 353 352 351 349 346 345 346 346 345 344 345 346 347 347 347 347 346 347 348 347 347 348 349 350 350 350 349 347 344 341 337 333 330 326 324 321 318 315 311 307 302 299 296 292 289 285 279 274 271 267 265 264 262 259
140 139 138 133 122 110 106 107 102 86 62 28 9 4 4 359 351 347 347 345 340 339 343 347 347 347 348 350 350 348 347 347 345 344 343 343 342 342 342 342 342 342 343 345 346 347 346 345 346 346 346 346 347 347 348 349 351 351 350 347 343 339 336 332 328 326 324 321 318 316 312 307 303 300 296 292 288 283 277 272 269 267 264 260 255
146 141 141 149 150 134 93 53 350 324 310 317 331 338 344 348 346 340 338 338 333 329 335 344 347 346 346 348 346 343 343 342 340 338 338 339 339 339 340 340 339 339 340 341 342 344 345 345 345 346 346 346 346 346 346 347 348 349 350 349 346 342 337 334 330 328 326 323 320 317 314 310 306 304 301 297 293 287 281 275 271 268 262 255 251
163 158 158 178 201 230 261 281 307 314 303 298 309 317 321 328 332 332 332 334 333 331 334 341 344 344 344 344 342 341 342 342 340 338 337 336 336 337 338 338 338 337 338 339 339 340 342 343 344 345 346 346 346 346 346 346 347 347 348 348 348 344 340 336 331 328 326 324 321 318 315 311 308 305 302 299 296 290 282 275 272 267 259 251 247
182 192 211 234 239 248 259 269 285 305 306 297 300 311 317 318 321 327 334 340 341 339 337 338 339 339 340 340 338 337 338 339 340 339 337 336 335 335 335 335 336 335 335 336 336 336 337 339 340 341 342 344 345 345 345 345 345 345 345 346 346 344 341 337 333 328 324 321 320 318 315 312 309 305 300 297 294 288 281 276 271 265 257 251 249
210 226 243 259 266 272 275 273 275 288 300 297 298 313 326 328 325 326 330 334 336 337 336 334 333 332 333 333 334 334 335 335 336 337 337 336 336 334 332 332 333 332 332 332 333 332 332 333 335 336 338 340 342 343 344 344 344 344 344 344 343 342 340 338 334 330 325 320 318 316 313 310 307 304 298 294 292 287 281 275 271 265 258 255 254
231 243 249 255 266 279 286 283 281 286 296 302 306 315 326 331 332 333 332 332 332 332 332 331 331 332 332 332 332 332 333 333 334 334 335 334 334 333 331 329 329 330 330 330 329 329 329 329 329 330 333 335 337 339 341 341 342 343 343 343 342 341 340 337 334 330 326 320 316 313 310 307 304 301 296 292 289 286 281 275 268 263 261 260 259
249 258 261 264 274 285 292 294 290 285 287 304 316 320 320 322 327 330 331 331 331 332 333 335 337 338 338 337 335 333 332 331 332 332 331 331 331 331 329 328 327 327 328 328 327 326 326 326 326 326 328 330 332 334 336 337 338 340 341 341 341 341 339 337 334 330 326 321 316 311 307 302 299 297 294 291 288 285 281 275 267 261 260 261 260
258 262 265 273 283 289 294 299 298 291 293 305 315 316 312 311 314 318 321 324 324 324 325 328 330 332 333 334 333 331 329 329 329 329 328 328 328 328 327 326 325 325 325 325 325 325 325 324 323 323 324 326 327 330 331 332 333 335 337 339 340 340 339 337 334 330 326 322 317 312 306 301 297 294 292 290 288 284 279 274 267 261 259 260 260